POE594 KFLL-CYHM

Flight info

Callsign POE594
Flight time N/A
Altitude 33000
Route AGERS1 DUCEN Q87 VIYAP Q69 RICCS TIKUM TIKUM3
Aircraft E295/M-VGDW/C

Departure

Time 2026-05-07 23:23
Airport Fort Lauderdale Hollywood International Airport (KFLL)

Arrival

Time N/A
Airport John C. Munro Hamilton International Airport (CYHM)
Time Latitude Longitude Altitude Speed Heading
2026-05-07 22:58 26.06887 -80.14211 17 ft 0 kts
2026-05-07 23:10 26.06883 -80.14211 17 ft 2 kts
2026-05-07 23:10 26.06882 -80.14211 17 ft 2 kts
2026-05-07 23:12 26.06879 -80.14211 17 ft 2 kts
2026-05-07 23:12 26.06863 -80.14212 17 ft 3 kts
2026-05-07 23:12 26.06843 -80.14212 17 ft 3 kts
2026-05-07 23:12 26.06824 -80.14212 17 ft 3 kts
2026-05-07 23:13 26.06803 -80.14212 17 ft 3 kts
2026-05-07 23:13 26.06782 -80.14212 17 ft 3 kts
2026-05-07 23:13 26.06762 -80.14213 17 ft 3 kts
2026-05-07 23:13 26.06757 -80.14213 17 ft 0 kts
2026-05-07 23:14 26.06758 -80.14213 17 ft 0 kts
2026-05-07 23:15 26.06765 -80.14215 17 ft 2 kts 329°
2026-05-07 23:15 26.06766 -80.14239 17 ft 8 kts 250°
2026-05-07 23:15 26.06764 -80.14260 17 ft 3 kts 272°
2026-05-07 23:15 26.06764 -80.14266 17 ft 0 kts 272°
2026-05-07 23:16 26.06768 -80.14367 17 ft 25 kts 270°
2026-05-07 23:16 26.06768 -80.14427 17 ft 0 kts 270°
2026-05-07 23:16 26.06768 -80.14493 17 ft 27 kts 271°
2026-05-07 23:17 26.06802 -80.14671 17 ft 33 kts 310°
2026-05-07 23:17 26.06965 -80.14855 17 ft 33 kts 316°
2026-05-07 23:17 26.07129 -80.15034 17 ft 33 kts 315°
2026-05-07 23:17 26.07211 -80.15119 17 ft 13 kts 334°
2026-05-07 23:18 26.07476 -80.15128 17 ft 40 kts
2026-05-07 23:18 26.07564 -80.15199 17 ft 20 kts 269°
2026-05-07 23:18 26.07565 -80.15414 17 ft 20 kts 271°
2026-05-07 23:18 26.07566 -80.15559 17 ft 13 kts 270°
2026-05-07 23:19 26.07567 -80.15661 17 ft 13 kts 270°
2026-05-07 23:19 26.07566 -80.15789 17 ft 13 kts 271°
2026-05-07 23:19 26.07568 -80.15938 17 ft 27 kts 271°
2026-05-07 23:19 26.07569 -80.16138 17 ft 33 kts 270°
2026-05-07 23:20 26.07570 -80.16333 17 ft 20 kts 270°
2026-05-07 23:20 26.07571 -80.16466 17 ft 20 kts 270°
2026-05-07 23:20 26.07574 -80.16613 17 ft 20 kts 283°
2026-05-07 23:20 26.07615 -80.16644 17 ft 0 kts
2026-05-07 23:22 26.07654 -80.16641 17 ft 14 kts
2026-05-07 23:22 26.07694 -80.16564 17 ft 32 kts 88°
2026-05-07 23:23 26.07693 -80.15997 17 ft 112 kts 90°
2026-05-07 23:23 26.07673 -80.14899 204 ft 154 kts 91°
2026-05-07 23:23 26.07647 -80.13777 862 ft 149 kts 91°
2026-05-07 23:23 26.07648 -80.12523 1245 ft 173 kts 90°
2026-05-07 23:24 26.07670 -80.11146 1792 ft 184 kts 86°
2026-05-07 23:24 26.07928 -80.09680 2069 ft 203 kts 73°
2026-05-07 23:24 26.08492 -80.08178 2315 ft 225 kts 57°
2026-05-07 23:24 26.09682 -80.06989 2666 ft 237 kts 30°
2026-05-07 23:25 26.11200 -80.06226 3188 ft 244 kts 21°
2026-05-07 23:25 26.12855 -80.05540 3502 ft 260 kts 19°
2026-05-07 23:25 26.14612 -80.05028 4134 ft 260 kts
2026-05-07 23:25 26.16395 -80.05187 4808 ft 258 kts 346°
2026-05-07 23:26 26.18121 -80.05707 5734 ft 252 kts 342°
2026-05-07 23:26 26.19830 -80.06294 6488 ft 263 kts 338°
2026-05-07 23:26 26.21440 -80.07236 7251 ft 263 kts 316°
2026-05-07 23:26 26.22569 -80.08808 8122 ft 261 kts 301°
2026-05-07 23:27 26.24302 -80.12405 9772 ft 267 kts 296°
2026-05-07 23:27 26.25106 -80.14247 10453 ft 276 kts 303°
2026-05-07 23:27 26.26514 -80.15867 10765 ft 303 kts 324°
2026-05-07 23:28 26.28368 -80.17069 11044 ft 325 kts 329°
2026-05-07 23:28 26.30379 -80.18481 11482 ft 337 kts 327°
2026-05-07 23:28 26.32402 -80.19758 12638 ft 328 kts 333°
2026-05-07 23:28 26.34431 -80.20880 13596 ft 327 kts 333°
2026-05-07 23:29 26.36512 -80.21914 14275 ft 334 kts 340°
2026-05-07 23:29 26.38547 -80.22494 14885 ft 341 kts 349°
2026-05-07 23:29 26.40944 -80.22913 15557 ft 346 kts 351°
2026-05-07 23:29 26.43380 -80.23275 15902 ft 352 kts 353°
2026-05-07 23:30 26.45834 -80.23541 15988 ft 353 kts 354°
2026-05-07 23:30 26.48198 -80.23770 16040 ft 354 kts 354°
2026-05-07 23:30 26.50742 -80.24025 16709 ft 355 kts 354°
2026-05-07 23:30 26.53109 -80.24260 17414 ft 356 kts 354°
2026-05-07 23:31 26.55660 -80.24511 18034 ft 360 kts 353°
2026-05-07 23:31 26.57270 -80.24713 18422 ft 361 kts 352°
2026-05-07 23:31 26.60615 -80.25291 19215 ft 364 kts 349°
2026-05-07 23:31 26.63108 -80.25772 19768 ft 368 kts 350°
2026-05-07 23:32 26.64748 -80.26051 20115 ft 370 kts 351°
2026-05-07 23:32 26.67648 -80.26529 20723 ft 374 kts 351°
2026-05-07 23:32 26.70253 -80.27001 21231 ft 376 kts 348°
2026-05-07 23:32 26.72790 -80.27676 21729 ft 377 kts 343°
2026-05-07 23:33 26.75270 -80.28566 22205 ft 378 kts 339°
2026-05-07 23:33 26.77736 -80.29632 22679 ft 380 kts 338°
2026-05-07 23:33 26.80194 -80.30748 23125 ft 382 kts 337°
2026-05-07 23:33 26.82638 -80.31871 23558 ft 385 kts 337°
2026-05-07 23:34 26.84608 -80.32779 23895 ft 387 kts 337°
2026-05-07 23:34 26.86814 -80.33787 24268 ft 390 kts 339°
2026-05-07 23:34 26.89321 -80.34832 24652 ft 393 kts 339°
2026-05-07 23:34 26.91862 -80.35877 25042 ft 395 kts 340°
2026-05-07 23:35 26.94355 -80.36909 25406 ft 397 kts 340°
2026-05-07 23:35 26.96954 -80.37946 25766 ft 400 kts 340°
2026-05-07 23:35 26.99509 -80.38962 26107 ft 403 kts 340°
2026-05-07 23:35 27.01587 -80.39808 26313 ft 405 kts 339°
2026-05-07 23:36 27.04108 -80.40864 26765 ft 404 kts 339°
2026-05-07 23:36 27.06784 -80.41954 27207 ft 403 kts 340°
2026-05-07 23:36 27.09380 -80.42978 27610 ft 403 kts 340°
2026-05-07 23:36 27.12064 -80.44091 28035 ft 401 kts 339°
2026-05-07 23:37 27.14669 -80.45221 28426 ft 401 kts 338°
2026-05-07 23:37 27.17190 -80.46337 28801 ft 400 kts 338°
2026-05-07 23:37 27.19210 -80.47254 29108 ft 399 kts 338°
2026-05-07 23:37 27.21776 -80.48420 29465 ft 398 kts 338°
2026-05-07 23:38 27.24370 -80.49594 29820 ft 398 kts 338°
2026-05-07 23:38 27.26910 -80.50735 30157 ft 397 kts 338°
2026-05-07 23:38 27.29456 -80.51874 30486 ft 397 kts 338°
2026-05-07 23:38 27.32079 -80.53050 30818 ft 396 kts 338°
2026-05-07 23:39 27.34652 -80.54188 31126 ft 396 kts 338°
2026-05-07 23:39 27.37216 -80.55307 31430 ft 395 kts 340°
2026-05-07 23:39 27.39821 -80.56314 31711 ft 396 kts 341°
2026-05-07 23:39 27.42241 -80.57234 31977 ft 395 kts 341°
2026-05-07 23:40 27.44807 -80.58209 32243 ft 395 kts 341°
2026-05-07 23:40 27.47294 -80.59163 32503 ft 394 kts 341°
2026-05-07 23:40 27.49816 -80.60145 32749 ft 394 kts 341°
2026-05-07 23:40 27.52415 -80.61157 32987 ft 394 kts 341°
2026-05-07 23:41 27.57657 -80.63213 32995 ft 397 kts 341°
2026-05-07 23:41 27.62833 -80.65255 32996 ft 392 kts 340°
2026-05-07 23:42 27.67945 -80.67281 32997 ft 392 kts 340°
2026-05-07 23:42 27.73083 -80.69330 32996 ft 392 kts 340°
2026-05-07 23:43 27.78263 -80.71419 32997 ft 392 kts 340°
2026-05-07 23:43 27.83397 -80.73474 32997 ft 392 kts 340°
2026-05-07 23:44 27.88559 -80.75538 32997 ft 392 kts 340°
2026-05-07 23:44 27.93673 -80.77584 32997 ft 392 kts 340°
2026-05-07 23:45 27.98813 -80.79644 32997 ft 392 kts 340°
2026-05-07 23:45 28.03943 -80.81708 32998 ft 396 kts 340°
2026-05-07 23:46 28.08290 -80.83480 32996 ft 405 kts 340°
2026-05-07 23:46 28.13295 -80.85533 33000 ft 415 kts 340°
2026-05-07 23:47 28.18593 -80.87680 32999 ft 425 kts 340°
2026-05-07 23:47 28.24016 -80.89862 32999 ft 434 kts 340°
2026-05-07 23:48 28.29699 -80.92101 32997 ft 443 kts 341°
2026-05-07 23:48 28.35614 -80.94457 32997 ft 451 kts 341°
2026-05-07 23:49 28.41607 -80.96823 32997 ft 458 kts 341°
2026-05-07 23:49 28.47668 -80.99203 32997 ft 463 kts 341°
2026-05-07 23:50 28.53739 -81.01616 32997 ft 463 kts 341°
2026-05-07 23:50 28.59800 -81.04068 32997 ft 462 kts 340°
2026-05-07 23:51 28.65845 -81.06564 32997 ft 462 kts 340°
2026-05-07 23:51 28.71900 -81.09060 32997 ft 462 kts 340°
2026-05-07 23:52 28.77857 -81.11535 32998 ft 462 kts 340°
2026-05-07 23:52 28.83871 -81.14067 32996 ft 462 kts 340°
2026-05-07 23:53 28.89966 -81.16621 32997 ft 462 kts 340°
2026-05-07 23:53 28.95956 -81.19102 32997 ft 462 kts 340°
2026-05-07 23:54 29.01955 -81.21561 32997 ft 462 kts 340°
2026-05-07 23:54 29.08073 -81.24081 32996 ft 462 kts 340°
2026-05-07 23:55 29.12897 -81.26106 32995 ft 462 kts 340°
2026-05-07 23:55 29.19822 -81.29022 32997 ft 462 kts 340°
2026-05-07 23:56 29.24754 -81.30979 33011 ft 464 kts 345°
2026-05-07 23:56 29.31202 -81.32118 32989 ft 471 kts 356°
2026-05-07 23:57 29.37722 -81.32602 32995 ft 474 kts 357°
2026-05-07 23:57 29.44128 -81.32960 32996 ft 475 kts 357°
2026-05-07 23:58 29.50630 -81.33344 32997 ft 475 kts 357°
2026-05-07 23:58 29.57199 -81.33747 32997 ft 475 kts 357°
2026-05-07 23:59 29.63814 -81.34168 32997 ft 475 kts 356°
2026-05-07 23:59 29.70419 -81.34586 32997 ft 475 kts 357°
2026-05-08 00:00 29.77008 -81.34997 32997 ft 475 kts 357°
2026-05-08 00:00 29.83612 -81.35408 32997 ft 475 kts 357°
2026-05-08 00:01 29.90209 -81.35822 32997 ft 475 kts 357°
2026-05-08 00:01 29.96808 -81.36244 32997 ft 475 kts 356°
2026-05-08 00:02 30.03372 -81.36694 32997 ft 475 kts 356°
2026-05-08 00:02 30.09970 -81.37134 32997 ft 475 kts 357°
2026-05-08 00:03 30.16612 -81.37495 32997 ft 475 kts 357°
2026-05-08 00:03 30.23174 -81.37867 32997 ft 475 kts 357°
2026-05-08 00:04 30.29378 -81.38251 32997 ft 475 kts 356°
2026-05-08 00:04 30.35834 -81.38679 32996 ft 475 kts 356°
2026-05-08 00:05 30.42338 -81.39087 32998 ft 475 kts 357°
2026-05-08 00:05 30.49009 -81.39413 32996 ft 475 kts 358°
2026-05-08 00:06 30.55522 -81.39678 32996 ft 475 kts 358°
2026-05-08 00:06 30.62092 -81.39958 32997 ft 475 kts 358°
2026-05-08 00:07 30.68692 -81.40283 32996 ft 475 kts 357°
2026-05-08 00:07 30.75327 -81.40644 32997 ft 475 kts 357°
2026-05-08 00:08 30.81954 -81.40994 32997 ft 475 kts 357°
2026-05-08 00:08 30.88511 -81.41327 32997 ft 475 kts 357°
2026-05-08 00:09 30.95155 -81.41693 32997 ft 475 kts 357°
2026-05-08 00:09 31.01765 -81.42084 32997 ft 475 kts 357°
2026-05-08 00:10 31.08384 -81.42475 32996 ft 475 kts 357°
2026-05-08 00:10 31.14980 -81.42912 32997 ft 475 kts 357°
2026-05-08 00:11 31.21592 -81.43297 32997 ft 475 kts 357°
2026-05-08 00:11 31.28174 -81.43523 32998 ft 476 kts
2026-05-08 00:12 31.34806 -81.43541 32997 ft 476 kts 360°
2026-05-08 00:12 31.41418 -81.43677 32998 ft 476 kts 358°
2026-05-08 00:13 31.48072 -81.42998 33007 ft 482 kts 14°
2026-05-08 00:13 31.54519 -81.40566 32988 ft 484 kts 18°
2026-05-08 00:14 31.60928 -81.38055 32996 ft 485 kts 19°
2026-05-08 00:14 31.67298 -81.35478 32997 ft 485 kts 19°
2026-05-08 00:15 31.73728 -81.32869 32997 ft 485 kts 19°
2026-05-08 00:15 31.80102 -81.30276 32996 ft 485 kts 19°
2026-05-08 00:16 31.86451 -81.27726 32997 ft 485 kts 19°
2026-05-08 00:16 31.92818 -81.25171 32988 ft 484 kts 17°
2026-05-08 00:17 31.99409 -81.23358 32996 ft 480 kts
2026-05-08 00:17 32.06032 -81.22608 32998 ft 477 kts
2026-05-08 00:18 32.11590 -81.22659 33006 ft 476 kts 359°
2026-05-08 00:18 32.18160 -81.22186 33137 ft 479 kts 11°
2026-05-08 00:19 32.20011 -81.18886 26141 ft 299 kts 114°
2026-05-08 00:19 32.20523 -81.17986 16061 ft 502 kts 33°
2026-05-08 00:19 32.23624 -81.14821 17268 ft 495 kts 41°
2026-05-08 00:19 32.24928 -81.13426 25901 ft 81 kts 42°
2026-05-08 00:20 32.25160 -81.13091 29893 ft 40 kts 22°
2026-05-08 00:20 32.25308 -81.12841 26825 ft 32 kts 46°
2026-05-08 00:20 32.25454 -81.12166 17138 ft 116 kts 99°
2026-05-08 00:20 32.26389 -81.11685 3083 ft 436 kts 41°
2026-05-08 00:21 32.26886 -81.09758 26 ft 602 kts 83°